| time (UTC) | temp F | wind direction | speed knots | gust knots | rain 1hr in | rain 24hr in | rain mn in | humidity % | barometer mb |
| 20260904161610 | 88 | 50 | 4.3 | 7.8 | 0.00 | 0.00 | 0.00 | 64 | 1015.9 |
| 20260904160607 | 88 | 10 | 4.3 | 9.6 | 0.00 | 0.00 | 0.00 | 64 | 1016.0 |
| 20260904155605 | 88 | 53 | 4.3 | 9.6 | 0.00 | 0.00 | 0.00 | 63 | 1015.8 |
| 20260904154602 | 88 | 17 | 4.3 | 7.8 | 0.00 | 0.00 | 0.00 | 65 | 1015.9 |
| 20260904153559 | 88 | 17 | 5.2 | 9.6 | 0.00 | 0.00 | 0.00 | 65 | 1015.8 |
| 20260904152557 | 88 | 2 | 5.2 | 9.6 | 0.00 | 0.00 | 0.00 | 65 | 1015.9 |
| 20260904151554 | 88 | 324 | 7.0 | 12.2 | 0.00 | 0.00 | 0.00 | 65 | 1016.0 |
| 20260904150552 | 89 | 32 | 6.1 | 9.6 | 0.00 | 0.00 | 0.00 | 62 | 1015.8 |
| 20260904145549 | 89 | 349 | 7.8 | 13.0 | 0.00 | 0.00 | 0.00 | 60 | 1015.8 |
| 20260904144547 | 91 | 28 | 7.8 | 13.9 | 0.00 | 0.00 | 0.00 | 56 | 1015.5 |
| 20260904143544 | 93 | 18 | 7.8 | 13.0 | 0.00 | 0.00 | 0.00 | 50 | 1015.7 |
| 20260904142541 | 94 | 8 | 5.2 | 11.3 | 0.00 | 0.00 | 0.00 | 48 | 1015.4 |
| 20260904141539 | 96 | 81 | 3.5 | 7.0 | 0.00 | 0.00 | 0.00 | 44 | 1015.7 |
| 20260904140536 | 96 | 143 | 2.6 | 7.8 | 0.00 | 0.00 | 0.00 | 44 | 1015.6 |
| 20260904135533 | 96 | 130 | 2.6 | 7.8 | 0.00 | 0.00 | 0.00 | 44 | 1015.5 |
| 20260904134531 | 97 | 75 | 2.6 | 6.1 | 0.00 | 0.00 | 0.00 | 43 | 1015.7 |
| 20260904133528 | 96 | 142 | 3.5 | 9.6 | 0.00 | 0.00 | 0.00 | 46 | 1015.6 |
| 20260904132526 | 96 | 138 | 3.5 | 9.6 | 0.00 | 0.00 | 0.00 | 46 | 1015.6 |
| 20260904131523 | 97 | 128 | 2.6 | 7.8 | 0.00 | 0.00 | 0.00 | 46 | 1015.7 |
| 20260904130521 | 97 | 137 | 2.6 | 5.2 | 0.00 | 0.00 | 0.00 | 44 | 1015.7 |
| 20260904125518 | 97 | 167 | 2.6 | 6.1 | 0.00 | 0.00 | 0.00 | 42 | 1015.8 |
| 20260904124515 | 97 | 114 | 2.6 | 7.0 | 0.00 | 0.00 | 0.00 | 42 | 1015.9 |
| 20260904123613 | 97 | 136 | 1.7 | 6.1 | 0.00 | 0.00 | 0.00 | 41 | 1015.8 |
| 20260904122610 | 97 | 166 | 1.7 | 5.2 | 0.00 | 0.00 | 0.00 | 40 | 1016.0 |
| 20260904121608 | 97 | 117 | 3.5 | 7.0 | 0.00 | 0.00 | 0.00 | 39 | 1015.9 |
| 20260904120605 | 96 | 59 | 2.6 | 7.0 | 0.00 | 0.00 | 0.00 | 41 | 1016.1 |
| 20260904115603 | 95 | 121 | 3.5 | 9.6 | 0.00 | 0.00 | 0.00 | 41 | 1016.2 |
| 20260904114600 | 95 | 111 | 3.5 | 7.8 | 0.00 | 0.00 | 0.00 | 40 | 1016.4 |
| 20260904113557 | 95 | 135 | 3.5 | 6.1 | 0.00 | 0.00 | 0.00 | 40 | 1016.5 |
| 20260904112555 | 94 | 102 | 2.6 | 6.1 | 0.00 | 0.00 | 0.00 | 43 | 1016.6 |
| 20260904111552 | 94 | 110 | 0.9 | 6.1 | 0.00 | 0.00 | 0.00 | 42 | 1016.6 |
| 20260904110550 | 94 | 99 | 1.7 | 5.2 | 0.00 | 0.00 | 0.00 | 44 | 1016.7 |
| 20260904105547 | 93 | 87 | 1.7 | 5.2 | 0.00 | 0.00 | 0.00 | 47 | 1016.8 |
| 20260904104544 | 92 | 345 | 0.9 | 3.5 | 0.00 | 0.00 | 0.00 | 49 | 1016.9 |
| 20260904103542 | 92 | 113 | 0.9 | 3.5 | 0.00 | 0.00 | 0.00 | 49 | 1017.0 |
| 20260904102539 | 92 | 98 | 1.7 | 3.5 | 0.00 | 0.00 | 0.00 | 50 | 1017.1 |
| 20260904101537 | 90 | 146 | 1.7 | 3.5 | 0.00 | 0.00 | 0.00 | 53 | 1017.2 |
| 20260904100534 | 90 | 135 | 0.9 | 3.5 | 0.00 | 0.00 | 0.00 | 53 | 1017.3 |
| 20260904095531 | 89 | 117 | 0.9 | 3.5 | 0.00 | 0.00 | 0.00 | 54 | 1017.2 |
| 20260904094529 | 88 | 126 | 1.7 | 3.5 | 0.00 | 0.00 | 0.00 | 55 | 1017.3 |
| 20260904093526 | 88 | 9 | 0.9 | 3.5 | 0.00 | 0.00 | 0.00 | 55 | 1017.3 |
| 20260904092524 | 88 | 131 | 0.9 | 3.5 | 0.00 | 0.00 | 0.00 | 55 | 1017.3 |
| 20260904091521 | 87 | 198 | 0.0 | 1.7 | 0.00 | 0.00 | 0.00 | 56 | 1017.3 |
| 20260904090518 | 87 | 0 | 0.9 | 3.5 | 0.00 | 0.00 | 0.00 | 56 | 1017.2 |
| 20260904085516 | 87 | 90 | 0.0 | 1.7 | 0.00 | 0.00 | 0.00 | 56 | 1017.2 |
| 20260904084614 | 86 | 293 | 0.0 | 1.7 | 0.00 | 0.00 | 0.00 | 59 | 1017.2 |
| 20260904083611 | 84 | 112 | 0.9 | 1.7 | 0.00 | 0.00 | 0.00 | 60 | 1017.1 |
| 20260904082608 | 85 | 107 | 0.0 | 1.7 | 0.00 | 0.00 | 0.00 | 60 | 1017.0 |
| 20260904081606 | 84 | 0.0 | 1.7 | 0.00 | 0.00 | 0.00 | 60 | 1017.1 | |
| 20260904080603 | 84 | 113 | 0.0 | 1.7 | 0.00 | 0.00 | 0.00 | 60 | 1017.0 |
| 20260904075601 | 83 | 0.0 | 0.0 | 0.00 | 0.00 | 0.00 | 62 | 1016.9 | |
| 20260904074558 | 82 | 0.0 | 1.7 | 0.00 | 0.00 | 0.00 | 64 | 1016.9 | |
| 20260904073555 | 81 | 113 | 0.0 | 1.7 | 0.00 | 0.00 | 0.00 | 66 | 1016.8 |
| 20260904072553 | 79 | 107 | 0.0 | 3.5 | 0.00 | 0.00 | 0.00 | 68 | 1016.8 |
| 20260904071550 | 78 | 109 | 0.9 | 1.7 | 0.00 | 0.00 | 0.00 | 69 | 1016.9 |
| 20260904070548 | 78 | 144 | 0.9 | 1.7 | 0.00 | 0.00 | 0.00 | 70 | 1016.8 |
| 20260904065545 | 78 | 0.0 | 1.7 | 0.00 | 0.00 | 0.00 | 69 | 1016.9 | |
| 20260904064542 | 79 | 0.0 | 0.0 | 0.00 | 0.00 | 0.00 | 67 | 1016.8 | |
| 20260904063540 | 78 | 50 | 0.9 | 1.7 | 0.00 | 0.00 | 0.00 | 69 | 1016.7 |
| 20260904062537 | 77 | 113 | 0.0 | 1.7 | 0.00 | 0.00 | 0.00 | 70 | 1016.7 |
| 20260904061534 | 76 | 0.0 | 0.0 | 0.00 | 0.00 | 0.00 | 73 | 1016.6 | |
| 20260904060532 | 76 | 0.0 | 0.0 | 0.00 | 0.00 | 0.00 | 73 | 1016.5 | |
| 20260904055529 | 74 | 286 | 0.9 | 1.7 | 0.00 | 0.00 | 0.00 | 75 | 1016.4 |
| 20260904054527 | 73 | 0.0 | 0.0 | 0.00 | 0.00 | 0.00 | 78 | 1016.5 | |
| 20260904053524 | 73 | 0.0 | 0.0 | 0.00 | 0.00 | 0.00 | 79 | 1016.5 | |
| 20260904052522 | 73 | 0.0 | 0.0 | 0.00 | 0.00 | 0.00 | 78 | 1016.4 | |
| 20260904051519 | 73 | 0.0 | 0.0 | 0.00 | 0.00 | 0.00 | 78 | 1016.5 | |
| 20260904050517 | 73 | 0.0 | 1.7 | 0.00 | 0.00 | 0.00 | 79 | 1016.4 | |
| 20260904045614 | 73 | 293 | 0.9 | 1.7 | 0.00 | 0.00 | 0.00 | 79 | 1016.5 |
| 20260904044611 | 73 | 270 | 0.0 | 1.7 | 0.00 | 0.00 | 0.00 | 80 | 1016.7 |
| 20260904043609 | 73 | 225 | 0.0 | 1.7 | 0.00 | 0.00 | 0.00 | 80 | 1016.6 |
| 20260904042606 | 72 | 0.0 | 1.7 | 0.00 | 0.00 | 0.00 | 80 | 1016.7 | |
| 20260904041604 | 72 | 304 | 0.0 | 1.7 | 0.00 | 0.00 | 0.00 | 81 | 1016.7 |
| 20260904040601 | 72 | 289 | 0.9 | 1.7 | 0.00 | 0.00 | 0.00 | 81 | 1016.7 |
| 20260904035558 | 72 | 232 | 0.0 | 1.7 | 0.00 | 0.00 | 0.00 | 81 | 1017.0 |
| 20260904034556 | 72 | 228 | 0.9 | 1.7 | 0.00 | 0.00 | 0.00 | 82 | 1017.0 |
| 20260904033553 | 72 | 225 | 0.9 | 1.7 | 0.00 | 0.00 | 0.00 | 82 | 1016.9 |
| 20260904032551 | 72 | 203 | 0.0 | 1.7 | 0.00 | 0.00 | 0.00 | 83 | 1017.0 |
| 20260904031548 | 72 | 68 | 0.0 | 1.7 | 0.00 | 0.00 | 0.00 | 83 | 1017.1 |
| 20260904030545 | 72 | 45 | 0.0 | 1.7 | 0.00 | 0.00 | 0.00 | 83 | 1017.2 |
| 20260904025543 | 72 | 236 | 0.0 | 1.7 | 0.00 | 0.00 | 0.00 | 83 | 1017.2 |
| 20260904024540 | 72 | 237 | 1.7 | 3.5 | 0.00 | 0.00 | 0.00 | 84 | 1017.3 |
| 20260904023538 | 72 | 203 | 0.9 | 1.7 | 0.00 | 0.00 | 0.00 | 85 | 1017.5 |
| 20260904022535 | 72 | 180 | 0.0 | 1.7 | 0.00 | 0.00 | 0.00 | 84 | 1017.5 |
| 20260904021533 | 72 | 233 | 0.9 | 1.7 | 0.00 | 0.00 | 0.00 | 85 | 1017.5 |
| 20260904020530 | 71 | 203 | 0.9 | 3.5 | 0.00 | 0.00 | 0.00 | 86 | 1017.6 |
| 20260904015527 | 72 | 204 | 1.7 | 3.5 | 0.00 | 0.00 | 0.00 | 86 | 1017.6 |
| 20260904014525 | 72 | 225 | 0.0 | 1.7 | 0.00 | 0.00 | 0.00 | 86 | 1017.8 |
| 20260904013522 | 72 | 199 | 1.7 | 3.5 | 0.00 | 0.00 | 0.00 | 86 | 1018.0 |
| 20260904012520 | 71 | 158 | 1.7 | 1.7 | 0.00 | 0.00 | 0.00 | 86 | 1017.9 |
| 20260904011517 | 72 | 209 | 0.9 | 1.7 | 0.00 | 0.00 | 0.00 | 86 | 1017.9 |
| 20260904010615 | 72 | 139 | 0.9 | 1.7 | 0.00 | 0.00 | 0.00 | 87 | 1018.1 |
| 20260904005612 | 72 | 158 | 0.0 | 1.7 | 0.00 | 0.00 | 0.00 | 87 | 1018.2 |
| 20260904004610 | 72 | 0.0 | 1.7 | 0.00 | 0.00 | 0.00 | 88 | 1018.3 | |
| 20260904003607 | 73 | 152 | 0.9 | 1.7 | 0.00 | 0.00 | 0.00 | 89 | 1018.4 |
| 20260904002604 | 73 | 172 | 0.9 | 1.7 | 0.00 | 0.00 | 0.00 | 89 | 1018.5 |
| 20260904001602 | 73 | 234 | 0.9 | 3.5 | 0.00 | 0.00 | 0.00 | 90 | 1018.6 |
| 20260904000559 | 73 | 225 | 0.9 | 1.7 | 0.00 | 0.00 | 0.00 | 90 | 1018.6 |
| 20260903235557 | 73 | 177 | 0.9 | 3.5 | 0.00 | 0.00 | 0.00 | 90 | 1018.8 |
| 20260903234554 | 73 | 221 | 1.7 | 3.5 | 0.00 | 0.00 | 0.00 | 90 | 1018.8 |
| 20260903233551 | 73 | 188 | 0.9 | 3.5 | 0.00 | 0.00 | 0.00 | 90 | 1018.8 |
| 20260903232549 | 73 | 164 | 1.7 | 3.5 | 0.00 | 0.00 | 0.00 | 91 | 1018.8 |
| 20260903231546 | 74 | 164 | 1.7 | 3.5 | 0.00 | 0.00 | 0.00 | 90 | 1018.9 |
| 20260903230543 | 74 | 191 | 2.6 | 5.2 | 0.00 | 0.00 | 0.00 | 90 | 1018.9 |
| 20260903225541 | 74 | 193 | 2.6 | 5.2 | 0.00 | 0.00 | 0.00 | 89 | 1019.0 |
| 20260903224539 | 74 | 213 | 1.7 | 3.5 | 0.00 | 0.00 | 0.00 | 89 | 1018.9 |
| 20260903223536 | 74 | 203 | 2.6 | 5.2 | 0.00 | 0.00 | 0.00 | 89 | 1019.0 |
| 20260903222533 | 74 | 199 | 1.7 | 5.2 | 0.00 | 0.00 | 0.00 | 89 | 1018.9 |
| 20260903221531 | 74 | 207 | 2.6 | 6.1 | 0.00 | 0.00 | 0.00 | 88 | 1018.9 |
| 20260903220528 | 74 | 206 | 2.6 | 5.2 | 0.00 | 0.00 | 0.00 | 88 | 1019.0 |
| 20260903215525 | 74 | 201 | 3.5 | 5.2 | 0.00 | 0.00 | 0.00 | 88 | 1019.2 |
| 20260903214523 | 75 | 159 | 2.6 | 5.2 | 0.00 | 0.00 | 0.00 | 87 | 1019.0 |
| 20260903213520 | 75 | 192 | 5.2 | 7.0 | 0.00 | 0.00 | 0.00 | 85 | 1019.1 |
| 20260903212517 | 75 | 153 | 2.6 | 5.2 | 0.00 | 0.00 | 0.00 | 83 | 1019.1 |
| 20260903211515 | 75 | 162 | 2.6 | 5.2 | 0.00 | 0.00 | 0.00 | 82 | 1019.0 |
| 20260903210613 | 75 | 181 | 4.3 | 7.8 | 0.00 | 0.00 | 0.00 | 82 | 1019.0 |
| 20260903205610 | 76 | 189 | 3.5 | 5.2 | 0.00 | 0.00 | 0.00 | 80 | 1019.2 |
| 20260903204608 | 76 | 206 | 2.6 | 5.2 | 0.00 | 0.00 | 0.00 | 80 | 1019.2 |
| 20260903203605 | 76 | 202 | 3.5 | 5.2 | 0.00 | 0.00 | 0.00 | 79 | 1019.3 |
| 20260903202602 | 76 | 170 | 1.7 | 3.5 | 0.00 | 0.00 | 0.00 | 79 | 1019.3 |
| 20260903201600 | 77 | 177 | 0.9 | 3.5 | 0.00 | 0.00 | 0.00 | 79 | 1019.3 |
| 20260903200557 | 77 | 183 | 1.7 | 3.5 | 0.00 | 0.00 | 0.00 | 79 | 1019.2 |
| 20260903195554 | 77 | 176 | 1.7 | 3.5 | 0.00 | 0.00 | 0.00 | 77 | 1019.1 |
| 20260903194552 | 77 | 172 | 2.6 | 3.5 | 0.00 | 0.00 | 0.00 | 77 | 1019.0 |
| 20260903193549 | 77 | 173 | 2.6 | 5.2 | 0.00 | 0.00 | 0.00 | 77 | 1019.0 |
| 20260903192547 | 78 | 180 | 3.5 | 6.1 | 0.00 | 0.00 | 0.00 | 75 | 1018.8 |
| 20260903191544 | 78 | 171 | 2.6 | 5.2 | 0.00 | 0.00 | 0.00 | 74 | 1018.8 |
| 20260903190541 | 78 | 177 | 1.7 | 3.5 | 0.00 | 0.00 | 0.00 | 74 | 1018.6 |
| 20260903185539 | 78 | 149 | 2.6 | 5.2 | 0.00 | 0.00 | 0.00 | 73 | 1018.4 |
| 20260903184536 | 79 | 118 | 1.7 | 3.5 | 0.00 | 0.00 | 0.00 | 73 | 1018.4 |
| 20260903183534 | 79 | 135 | 1.7 | 6.1 | 0.00 | 0.00 | 0.00 | 72 | 1018.3 |
| 20260903182531 | 80 | 101 | 1.7 | 6.1 | 0.00 | 0.00 | 0.00 | 72 | 1018.3 |
| 20260903181528 | 80 | 126 | 2.6 | 6.1 | 0.00 | 0.00 | 0.00 | 72 | 1018.2 |
| 20260903180526 | 80 | 138 | 4.3 | 7.0 | 0.00 | 0.00 | 0.00 | 71 | 1018.2 |
| 20260903175523 | 81 | 156 | 2.6 | 7.0 | 0.00 | 0.00 | 0.00 | 70 | 1018.0 |
| 20260903174521 | 81 | 118 | 3.5 | 7.0 | 0.00 | 0.00 | 0.00 | 70 | 1018.1 |
| 20260903173518 | 81 | 119 | 5.2 | 9.6 | 0.00 | 0.00 | 0.00 | 69 | 1018.0 |
| 20260903172515 | 82 | 124 | 4.3 | 9.6 | 0.00 | 0.00 | 0.00 | 68 | 1017.9 |
| 20260903171613 | 82 | 218 | 3.5 | 11.3 | 0.00 | 0.00 | 0.00 | 67 | 1017.9 |
| 20260903170610 | 83 | 127 | 4.3 | 11.3 | 0.00 | 0.00 | 0.00 | 67 | 1017.8 |
| 20260903165608 | 83 | 178 | 6.1 | 12.2 | 0.00 | 0.00 | 0.00 | 66 | 1017.8 |
| 20260903164605 | 83 | 160 | 6.1 | 11.3 | 0.00 | 0.00 | 0.00 | 65 | 1017.9 |
| 20260903163603 | 84 | 178 | 5.2 | 11.3 | 0.00 | 0.00 | 0.00 | 64 | 1017.9 |
| 20260903162600 | 85 | 162 | 5.2 | 11.3 | 0.00 | 0.00 | 0.00 | 64 | 1017.8 |